VU36VU-13 Weather Reports


time (UTC)temp
F
wind
direction
speed
knots
gust
knots
rain 1hr
in
rain 24hr
in
rain mn
in
humidity
%
barometer
mb
20260504210447 76 224 16.5 35.6 0.00 0.00 0.00 62 1010.0
20260504210247 76 224 16.5 35.6 0.00 0.00 0.00 62 1010.0
20260504210048 76 224 16.5 35.6 0.00 0.00 0.00 62 1010.0
20260504205847 76 223 15.6 33.9 0.00 0.00 0.00 62 1010.0
20260504205647 76 223 15.6 33.9 0.00 0.00 0.00 62 1010.0
20260504205447 76 223 15.6 33.9 0.00 0.00 0.00 62 1010.0
20260504205247 76 223 15.6 33.9 0.00 0.00 0.00 62 1010.0
20260504205047 76 223 15.6 33.9 0.00 0.00 0.00 62 1010.0
20260504204847 76 223 15.6 33.9 0.00 0.00 0.00 62 1010.0
20260504204648 76 223 15.6 33.9 0.00 0.00 0.00 62 1010.0
20260504204247 76 221 14.8 32.2 0.00 0.00 0.00 62 1010.0
20260504204047 76 221 14.8 32.2 0.00 0.00 0.00 62 1010.0
20260504203847 76 221 14.8 32.2 0.00 0.00 0.00 62 1010.0
20260504203647 76 221 14.8 32.2 0.00 0.00 0.00 62 1010.0
20260504203447 76 221 14.8 32.2 0.00 0.00 0.00 62 1010.0
20260504203247 76 221 14.8 32.2 0.00 0.00 0.00 62 1010.0
20260504203047 76 221 14.8 32.2 0.00 0.00 0.00 62 1010.0
20260504202847 76 219 13.9 29.5 0.00 0.00 0.00 62 1010.0
20260504202647 76 219 13.9 29.5 0.00 0.00 0.00 62 1010.0
20260504202247 76 214 15.6 29.5 0.00 0.00 0.00 62 1010.0
20260504202047 76 214 15.6 29.5 0.00 0.00 0.00 62 1010.0
20260504201847 76 214 15.6 29.5 0.00 0.00 0.00 62 1010.0
20260504201647 76 214 15.6 29.5 0.00 0.00 0.00 62 1010.0
20260504201447 76 209 15.6 27.8 0.00 0.00 0.00 62 1010.0
20260504201247 76 209 15.6 27.8 0.00 0.00 0.00 62 1010.0
20260504201047 76 209 15.6 27.8 0.00 0.00 0.00 62 1010.0
20260504200847 76 209 15.6 27.8 0.00 0.00 0.00 62 1010.0
20260504200647 76 209 15.6 27.8 0.00 0.00 0.00 62 1010.0
20260504200448 76 209 15.6 27.8 0.00 0.00 0.00 62 1010.0
20260504200048 76 209 15.6 27.8 0.00 0.00 0.00 62 1010.0
20260504195847 76 192 15.6 27.8 0.00 0.00 0.00 62 1010.0
20260504195647 76 192 15.6 27.8 0.00 0.00 0.00 62 1010.0
20260504195447 76 192 15.6 27.8 0.00 0.00 0.00 62 1010.0
20260504195247 76 192 15.6 27.8 0.00 0.00 0.00 62 1010.0
20260504195047 76 192 15.6 27.8 0.00 0.00 0.00 62 1010.0
20260504194847 76 192 15.6 27.8 0.00 0.00 0.00 62 1010.0
20260504194647 76 192 15.6 27.8 0.00 0.00 0.00 62 1010.0
20260504194447 76 193 17.4 27.8 0.00 0.00 0.00 62 1011.0
20260504194247 76 193 17.4 27.8 0.00 0.00 0.00 62 1011.0
20260504191447 77 195 20.0 46.9 0.00 0.00 0.00 60 1011.0
20260504191247 77 195 20.0 46.9 0.00 0.00 0.00 60 1011.0
20260504191047 77 195 20.0 46.9 0.00 0.00 0.00 63 1011.0
20260504190847 77 195 20.0 46.9 0.00 0.00 0.00 63 1011.0
20260504190647 77 195 20.0 46.9 0.00 0.00 0.00 63 1011.0
20260504190447 77 195 20.0 46.9 0.00 0.00 0.00 63 1011.0
20260504190247 77 195 20.0 46.9 0.00 0.00 0.00 63 1011.0
20260504190048 77 195 20.0 46.9 0.00 0.00 0.00 63 1011.0
20260504185847 77 195 20.0 45.2 0.00 0.02 0.00 63 1011.0
20260504185647 77 195 20.0 45.2 0.00 0.02 0.00 63 1011.0
20260504183247 77 195 20.0 43.4 0.00 0.02 0.00 62 1012.0
20260504183048 77 195 20.0 43.4 0.00 0.02 0.00 62 1012.0
20260504182846 77 195 20.0 40.8 0.00 0.02 0.00 61 1012.0
20260504182646 77 195 20.0 40.8 0.00 0.02 0.00 61 1012.0
20260504182447 77 195 20.0 40.8 0.00 0.02 0.00 61 1012.0
20260504182248 77 195 20.0 40.8 0.00 0.02 0.00 61 1012.0
20260504182048 77 195 20.0 40.8 0.00 0.02 0.00 61 1012.0
20260504181646 77 195 20.0 40.8 0.00 0.02 0.00 61 1012.0
20260504181446 78 191 19.1 39.1 0.00 0.02 0.00 60 1012.0
20260504181246 78 191 19.1 39.1 0.00 0.02 0.00 60 1012.0
20260504181047 78 191 19.1 39.1 0.00 0.02 0.00 60 1012.0
20260504180846 78 191 19.1 39.1 0.00 0.02 0.00 60 1012.0
20260504180646 78 191 19.1 39.1 0.00 0.02 0.00 60 1012.0
20260504180447 78 191 19.1 39.1 0.00 0.02 0.00 60 1012.0
20260504180247 78 191 19.1 39.1 0.00 0.02 0.00 60 1012.0
20260504180049 78 191 19.1 39.1 0.00 0.02 0.00 60 1012.0
20260504175549 78 184 18.2 39.1 0.00 0.02 0.00 59 1012.0
20260504175348 78 184 18.2 39.1 0.00 0.02 0.00 59 1012.0
20260504175148 78 184 18.2 39.1 0.00 0.02 0.00 59 1012.0
20260504174949 78 184 18.2 39.1 0.00 0.02 0.00 59 1012.0
20260504174749 78 184 18.2 39.1 0.00 0.02 0.00 59 1012.0
20260504174548 78 184 18.2 39.1 0.00 0.02 0.00 59 1012.0
20260504174349 78 172 17.4 39.1 0.00 0.02 0.00 58 1012.0
20260504173609 78 172 17.4 39.1 0.00 0.02 0.00 58 1012.0
20260504173409 78 172 17.4 39.1 0.00 0.02 0.00 58 1012.0
20260504173209 78 172 17.4 39.1 0.00 0.02 0.00 58 1012.0
20260504172630 78 158 16.5 38.2 0.00 0.02 0.00 58 1012.0
20260504172430 78 158 16.5 38.2 0.00 0.02 0.00 58 1012.0
20260504172230 78 158 16.5 38.2 0.00 0.02 0.00 58 1012.0
20260504171831 78 158 16.5 38.2 0.00 0.02 0.00 58 1012.0
20260504171631 78 158 16.5 38.2 0.00 0.02 0.00 58 1012.0
20260504171431 79 145 16.5 38.2 0.00 0.02 0.00 56 1012.0
20260504171231 79 145 16.5 38.2 0.00 0.02 0.00 56 1012.0
20260504171031 79 145 16.5 38.2 0.00 0.02 0.00 56 1012.0
20260504170831 79 145 16.5 38.2 0.00 0.02 0.00 56 1012.0
20260504170631 79 145 16.5 38.2 0.00 0.02 0.00 56 1012.0
20260504170431 79 145 16.5 38.2 0.00 0.02 0.00 56 1012.0
20260504170231 79 145 16.5 38.2 0.00 0.02 0.00 56 1012.0
20260504160431 81 107 17.4 35.6 0.00 0.02 0.00 50 1011.0
20260504160231 81 107 17.4 35.6 0.00 0.02 0.00 50 1011.0
20260504150831 83 148 11.3 26.1 0.00 0.02 0.00 40 1010.0
20260504150634 83 148 11.3 26.1 0.00 0.02 0.00 40 1010.0
20260504150431 83 148 11.3 26.1 0.00 0.02 0.00 40 1010.0
20260504150231 83 148 11.3 26.1 0.00 0.02 0.00 40 1010.0
20260504141231 87 342 5.2 22.6 0.00 0.02 0.00 31 1009.0
20260504141031 87 342 5.2 22.6 0.00 0.02 0.00 31 1009.0
20260504140831 87 342 5.2 22.6 0.00 0.02 0.00 31 1009.0
20260504140336 87 302 10.4 22.6 0.00 0.02 0.00 31 1009.0
20260504140137 87 302 10.4 22.6 0.00 0.02 0.00 31 1009.0
20260504130736 90 348 13.9 44.3 0.00 0.02 0.00 27 1007.0
20260504130536 90 348 13.9 44.3 0.00 0.02 0.00 27 1007.0
20260504130137 90 348 13.9 44.3 0.00 0.02 0.00 27 1007.0
20260504110259 94 3 18.2 50.4 0.00 0.02 0.00 23 1006.0
20260504100459 94 360 15.6 46.9 0.00 0.02 0.00 24 1006.0
20260504100300 94 360 15.6 46.9 0.00 0.02 0.00 24 1006.0
20260504081959 94 4 13.0 46.9 0.00 0.02 0.00 26 1008.0
20260504081800 94 4 13.0 46.9 0.00 0.02 0.00 26 1008.0
20260504081359 93 2 13.9 47.8 0.00 0.02 0.00 26 1008.0
20260504081159 93 2 13.9 47.8 0.00 0.02 0.00 26 1008.0
20260504080959 93 2 13.9 47.8 0.00 0.02 0.00 26 1008.0
20260504080759 93 2 13.9 47.8 0.00 0.02 0.00 26 1008.0
20260504080559 93 2 13.9 47.8 0.00 0.02 0.00 26 1008.0
20260504080359 93 2 13.9 47.8 0.00 0.02 0.00 26 1008.0
20260504080159 93 2 13.9 47.8 0.00 0.02 0.00 26 1008.0
20260504070359 94 340 16.5 53.9 0.00 0.00 0.00 27 1009.0
20260504070159 94 340 16.5 53.9 0.00 0.00 0.00 25 1009.0
20260504060234 92 326 17.4 53.9 0.00 0.00 0.00 28 1010.0
20260504050547 89 308 17.4 53.9 0.00 0.00 0.00 37 1011.0
20260504050347 89 308 17.4 53.9 0.00 0.00 0.00 37 1011.0
20260504050147 89 308 17.4 53.9 0.00 0.00 0.00 37 1011.0
20260504045947 88 305 17.4 52.1 0.00 0.00 0.00 40 1011.0
20260504045747 88 305 17.4 52.1 0.00 0.00 0.00 40 1011.0
20260504045547 88 305 17.4 52.1 0.00 0.00 0.00 40 1011.0
20260504045347 88 305 17.4 52.1 0.00 0.00 0.00 40 1011.0
20260504045147 88 305 17.4 52.1 0.00 0.00 0.00 40 1011.0
20260504044947 88 305 17.4 52.1 0.00 0.00 0.00 40 1011.0
20260504044547 88 305 17.4 52.1 0.00 0.00 0.00 40 1011.0
20260504044347 87 301 17.4 51.3 0.00 0.00 0.00 43 1011.0
20260504044147 87 301 17.4 51.3 0.00 0.00 0.00 43 1011.0
20260504043947 87 301 17.4 51.3 0.00 0.00 0.00 43 1011.0
20260504043747 87 301 17.4 51.3 0.00 0.00 0.00 43 1011.0
20260504043547 87 301 17.4 51.3 0.00 0.00 0.00 43 1011.0
20260504043347 87 301 17.4 51.3 0.00 0.00 0.00 43 1011.0
20260504043147 87 301 17.4 51.3 0.00 0.00 0.00 43 1011.0
20260504042947 85 296 17.4 49.5 0.00 0.00 0.00 47 1012.0
20260504042547 85 296 17.4 49.5 0.00 0.00 0.00 47 1012.0
20260504042347 85 296 17.4 49.5 0.00 0.00 0.00 47 1012.0
20260504042147 85 296 17.4 49.5 0.00 0.00 0.00 47 1012.0
20260504041947 85 296 17.4 49.5 0.00 0.00 0.00 47 1012.0
20260504041747 85 296 17.4 49.5 0.00 0.00 0.00 47 1012.0
20260504041547 85 296 17.4 49.5 0.00 0.00 0.00 47 1012.0
20260504041347 84 292 17.4 47.8 0.00 0.00 0.00 52 1012.0
20260504041147 84 292 17.4 47.8 0.00 0.00 0.00 52 1012.0
20260504040947 84 292 17.4 47.8 0.00 0.00 0.00 52 1012.0
20260504040748 84 292 17.4 47.8 0.00 0.00 0.00 52 1012.0
20260504040347 84 292 17.4 47.8 0.00 0.00 0.00 52 1012.0
20260504040148 84 292 17.4 47.8 0.00 0.00 0.00 52 1012.0
20260504035947 83 289 16.5 47.8 0.00 0.00 0.00 54 1012.0
20260504035747 83 289 16.5 47.8 0.00 0.00 0.00 54 1012.0
20260504035548 83 289 16.5 47.8 0.00 0.00 0.00 54 1012.0
20260504035347 83 289 16.5 47.8 0.00 0.00 0.00 54 1012.0
20260504035147 83 289 16.5 47.8 0.00 0.00 0.00 54 1012.0
20260504034947 83 289 16.5 47.8 0.00 0.00 0.00 54 1012.0
20260504034747 83 289 16.5 47.8 0.00 0.00 0.00 54 1012.0
20260504034347 82 284 16.5 46.1 0.00 0.00 0.00 58 1012.0
20260504034147 82 284 16.5 46.1 0.00 0.00 0.00 58 1012.0
20260504033947 82 284 16.5 46.1 0.00 0.00 0.00 58 1012.0
20260504033747 82 284 16.5 46.1 0.00 0.00 0.00 58 1012.0
20260504033547 82 284 16.5 46.1 0.00 0.00 0.00 58 1012.0
20260504033347 82 284 16.5 46.1 0.00 0.00 0.00 58 1012.0
20260504033147 82 284 16.5 46.1 0.00 0.00 0.00 58 1012.0
20260504032947 81 279 15.6 44.3 0.00 0.00 0.00 62 1012.0
20260504032747 81 279 15.6 44.3 0.00 0.00 0.00 62 1012.0
20260504032548 81 279 15.6 44.3 0.00 0.00 0.00 62 1012.0
20260504032147 81 279 15.6 44.3 0.00 0.00 0.00 62 1012.0
20260504031947 81 279 15.6 44.3 0.00 0.00 0.00 62 1012.0
20260504031747 81 279 15.6 44.3 0.00 0.00 0.00 62 1012.0
20260504031547 81 279 15.6 44.3 0.00 0.00 0.00 62 1012.0
20260504031347 79 274 15.6 43.4 0.00 0.00 0.00 66 1012.0
20260504031147 79 274 15.6 43.4 0.00 0.00 0.00 66 1012.0
20260504030947 79 274 15.6 43.4 0.00 0.00 0.00 66 1012.0
20260504030747 79 274 15.6 43.4 0.00 0.00 0.00 66 1012.0
20260504030547 79 274 15.6 43.4 0.00 0.00 0.00 66 1012.0
20260504030348 79 274 15.6 43.4 0.00 0.00 0.00 66 1012.0
20260504025947 78 274 14.8 41.7 0.00 0.00 0.00 69 1012.0
20260504025747 78 274 14.8 41.7 0.00 0.00 0.00 69 1012.0
20260504025547 78 274 14.8 41.7 0.00 0.00 0.00 69 1012.0
20260504025347 78 274 14.8 41.7 0.00 0.00 0.00 69 1012.0
20260504025147 78 274 14.8 41.7 0.00 0.00 0.00 69 1012.0
20260504024947 78 274 14.8 41.7 0.00 0.00 0.00 69 1012.0
20260504024747 78 274 14.8 41.7 0.00 0.00 0.00 69 1012.0
20260504024547 78 274 14.8 41.7 0.00 0.00 0.00 69 1012.0
20260504024347 77 274 14.8 40.0 0.00 0.00 0.00 74 1012.0
20260504024148 77 274 14.8 40.0 0.00 0.00 0.00 74 1012.0
20260504023747 77 274 14.8 40.0 0.00 0.00 0.00 74 1012.0
20260504023547 77 274 14.8 40.0 0.00 0.00 0.00 74 1012.0
20260504023347 77 274 14.8 40.0 0.00 0.00 0.00 74 1012.0
20260504023147 77 274 14.8 40.0 0.00 0.00 0.00 74 1012.0
20260504022947 76 272 13.9 38.2 0.00 0.00 0.00 78 1012.0
20260504022747 76 272 13.9 38.2 0.00 0.00 0.00 78 1012.0
20260504022547 76 272 13.9 38.2 0.00 0.00 0.00 78 1012.0
20260504022347 76 272 13.9 38.2 0.00 0.00 0.00 78 1012.0
20260504022147 76 272 13.9 38.2 0.00 0.00 0.00 78 1012.0
20260504021551 76 272 13.9 38.2 0.00 0.00 0.00 78 1012.0
20260504021351 74 271 13.9 35.6 0.00 0.00 0.00 83 1012.0
20260504021151 74 271 13.9 35.6 0.00 0.00 0.00 83 1012.0
20260504020951 74 271 13.9 35.6 0.00 0.00 0.00 83 1012.0
20260504020551 74 271 13.9 35.6 0.00 0.00 0.00 83 1012.0
20260504020351 74 271 13.9 35.6 0.00 0.00 0.00 83 1012.0
20260504020151 74 271 13.9 35.6 0.00 0.00 0.00 83 1012.0
20260504015951 74 270 13.0 33.9 0.00 0.00 0.00 84 1012.0
20260504015751 74 270 13.0 33.9 0.00 0.00 0.00 84 1012.0
20260504015551 74 270 13.0 33.9 0.00 0.00 0.00 84 1012.0
20260504015351 74 270 13.0 33.9 0.00 0.00 0.00 84 1012.0
20260504015151 74 270 13.0 33.9 0.00 0.00 0.00 84 1012.0
20260504014951 74 270 13.0 33.9 0.00 0.00 0.00 84 1012.0
20260504014551 74 270 13.0 33.9 0.00 0.00 0.00 84 1012.0
20260504014351 73 267 13.0 32.2 0.00 0.00 0.00 87 1012.0
20260504014151 73 267 13.0 32.2 0.00 0.00 0.00 87 1012.0
20260504013951 73 267 13.0 32.2 0.00 0.00 0.00 87 1012.0
20260504013751 73 267 13.0 32.2 0.00 0.00 0.00 87 1012.0
20260504013551 73 267 13.0 32.2 0.00 0.00 0.00 87 1012.0
20260504013351 73 267 13.0 32.2 0.00 0.00 0.00 87 1012.0
20260504013151 73 267 13.0 32.2 0.00 0.00 0.00 87 1012.0
20260504012951 72 265 13.0 29.5 0.00 0.00 0.00 89 1011.0
20260504012752 72 265 13.0 29.5 0.00 0.00 0.00 89 1011.0
20260504012351 72 265 13.0 29.5 0.00 0.00 0.00 89 1011.0
20260504012151 72 265 13.0 29.5 0.00 0.00 0.00 89 1011.0
20260504011951 72 265 13.0 29.5 0.00 0.00 0.00 89 1011.0
20260504011751 72 265 13.0 29.5 0.00 0.00 0.00 89 1011.0
20260504011551 72 265 13.0 29.5 0.00 0.00 0.00 89 1011.0
20260504011351 72 263 12.2 27.8 0.00 0.00 0.00 91 1011.0
20260504011151 72 263 12.2 27.8 0.00 0.00 0.00 91 1011.0
20260504010951 72 269 12.2 27.8 0.00 0.00 0.00 91 1011.0
20260504010751 72 269 12.2 27.8 0.00 0.00 0.00 91 1011.0
20260504010552 72 269 12.2 27.8 0.00 0.00 0.00 91 1011.0
20260504010152 72 269 11.3 27.8 0.00 0.00 0.00 91 1011.0
20260504005951 72 269 11.3 27.8 0.00 0.00 0.00 91 1011.0
20260504005751 72 269 11.3 27.8 0.00 0.00 0.00 91 1011.0
20260504005551 72 269 11.3 27.8 0.00 0.00 0.00 91 1011.0
20260504005351 72 269 11.3 27.8 0.00 0.00 0.00 91 1011.0
20260504005151 72 269 11.3 27.8 0.00 0.00 0.00 91 1011.0
20260504004951 72 269 11.3 27.8 0.00 0.00 0.00 91 1011.0
20260504004751 72 269 11.3 27.8 0.00 0.00 0.00 91 1011.0
20260504004551 72 269 11.3 27.8 0.00 0.00 0.00 91 1011.0
20260504004151 72 267 11.3 29.5 0.00 0.00 0.00 90 1011.0
20260504003951 71 267 11.3 29.5 0.00 0.00 0.00 94 1011.0
20260504003752 71 267 11.3 29.5 0.00 0.00 0.00 94 1011.0
20260504003551 71 267 11.3 29.5 0.00 0.00 0.00 94 1011.0
20260504003351 71 267 11.3 29.5 0.00 0.00 0.00 94 1011.0
20260504003151 71 267 11.3 29.5 0.00 0.00 0.00 94 1011.0
20260504002951 71 265 11.3 32.2 0.00 0.00 0.00 94 1011.0
20260504002751 71 265 11.3 32.2 0.00 0.00 0.00 94 1011.0
20260504002551 71 265 11.3 32.2 0.00 0.00 0.00 94 1011.0
20260504002352 71 265 11.3 32.2 0.00 0.00 0.00 94 1011.0
20260504001951 71 265 11.3 32.2 0.00 0.00 0.00 94 1011.0
20260504001751 71 265 11.3 32.2 0.00 0.00 0.00 94 1011.0
20260504001551 71 265 11.3 32.2 0.00 0.00 0.02 94 1011.0
20260504001351 71 259 11.3 33.9 0.00 0.00 0.02 93 1011.0
20260504001151 71 259 11.3 33.9 0.00 0.00 0.02 93 1011.0
20260504000951 71 259 11.3 33.9 0.00 0.00 0.02 94 1011.0
20260504000751 71 259 11.3 33.9 0.00 0.00 0.02 94 1011.0
20260504000551 71 259 11.3 33.9 0.00 0.00 0.02 94 1011.0
20260504000354 71 259 11.3 33.9 0.00 0.00 0.02 94 1011.0
20260503235951 71 249 11.3 35.6 0.00 0.00 0.02 93 1010.0
20260503235754 71 249 11.3 35.6 0.00 0.00 0.02 93 1010.0
20260503235551 71 249 11.3 35.6 0.00 0.00 0.02 93 1010.0
20260503235351 71 249 11.3 35.6 0.00 0.00 0.02 93 1010.0
20260503235151 71 249 11.3 35.6 0.00 0.00 0.02 93 1010.0
20260503234951 71 249 11.3 35.6 0.00 0.00 0.02 93 1010.0
20260503234751 71 249 11.3 35.6 0.00 0.00 0.02 93 1010.0
20260503234551 71 249 11.3 35.6 0.00 0.00 0.02 93 1010.0
20260503234351 71 236 13.0 36.5 0.00 0.00 0.02 93 1010.0
20260503234152 71 236 13.0 36.5 0.00 0.00 0.02 93 1010.0
20260503233751 71 236 13.0 36.5 0.00 0.00 0.02 93 1010.0
20260503233552 71 236 13.0 36.5 0.00 0.00 0.02 93 1010.0
20260503233352 71 236 13.0 36.5 0.00 0.00 0.02 93 1010.0
20260503233151 71 236 13.0 36.5 0.00 0.00 0.02 93 1010.0
20260503232952 71 225 14.8 38.2 0.00 0.00 0.02 91 1010.0
20260503232752 71 225 14.8 38.2 0.00 0.00 0.02 91 1010.0
20260503232551 71 225 14.8 38.2 0.00 0.00 0.02 91 1010.0
20260503232351 71 225 14.8 38.2 0.00 0.00 0.02 91 1010.0
20260503232152 71 225 14.8 38.2 0.00 0.00 0.02 91 1010.0
20260503231952 71 225 14.8 38.2 0.00 0.00 0.02 91 1010.0
20260503231551 71 225 14.8 38.2 0.00 0.00 0.02 91 1010.0
20260503231351 71 221 16.5 39.1 0.00 0.00 0.02 90 1010.0
20260503231151 71 221 16.5 39.1 0.00 0.00 0.02 90 1010.0
20260503230951 71 221 16.5 39.1 0.00 0.00 0.02 90 1010.0
20260503230752 71 221 16.5 39.1 0.00 0.00 0.02 90 1010.0
20260503230551 71 221 16.5 39.1 0.00 0.00 0.02 90 1010.0
20260503230351 71 221 16.5 39.1 0.00 0.00 0.02 90 1010.0
20260503230152 71 221 16.5 39.1 0.00 0.00 0.02 90 1010.0
20260503225952 71 222 16.5 39.1 0.00 0.00 0.02 89 1010.0
20260503225552 71 222 16.5 39.1 0.00 0.00 0.02 89 1010.0
20260503225352 71 222 16.5 39.1 0.00 0.00 0.02 89 1010.0
20260503225152 71 222 16.5 39.1 0.00 0.00 0.02 89 1010.0
20260503224952 71 222 16.5 39.1 0.00 0.00 0.02 89 1010.0
20260503224752 71 222 16.5 39.1 0.00 0.00 0.02 89 1010.0
20260503224551 71 222 16.5 39.1 0.00 0.00 0.02 89 1010.0
20260503224352 72 224 17.4 40.0 0.00 0.00 0.02 87 1010.0
20260503224152 72 224 17.4 40.0 0.00 0.00 0.02 87 1010.0
20260503223952 72 224 17.4 40.0 0.00 0.00 0.02 87 1010.0
20260503223752 72 224 17.4 40.0 0.00 0.00 0.02 87 1010.0
20260503223352 72 224 17.4 40.0 0.00 0.00 0.02 87 1010.0
20260503223152 72 224 17.4 40.0 0.00 0.00 0.02 87 1010.0
20260503222952 72 226 18.2 40.0 0.00 0.00 0.02 85 1009.0
20260503222752 72 226 18.2 40.0 0.00 0.00 0.02 85 1009.0
20260503222552 72 226 18.2 40.0 0.00 0.00 0.02 85 1009.0
20260503222352 72 226 18.2 40.0 0.00 0.00 0.02 85 1009.0
20260503222152 72 226 18.2 40.0 0.00 0.00 0.02 85 1009.0
20260503221952 72 226 18.2 40.0 0.00 0.00 0.02 85 1009.0
20260503221752 72 226 18.2 40.0 0.00 0.00 0.02 85 1009.0
20260503221552 72 226 18.2 40.0 0.00 0.00 0.02 85 1009.0
20260503221151 72 228 19.1 40.0 0.00 0.00 0.02 84 1009.0
20260503220952 72 228 19.1 40.0 0.00 0.00 0.02 84 1009.0
20260503220752 72 228 19.1 40.0 0.00 0.00 0.02 84 1009.0
20260503220551 72 228 19.1 40.0 0.00 0.00 0.02 84 1009.0
20260503220351 72 228 19.1 40.0 0.00 0.00 0.02 84 1009.0
20260503220156 73 228 19.1 40.0 0.00 0.00 0.02 83 1009.0
20260503215952 73 228 19.1 40.0 0.00 0.00 0.02 83 1009.0
20260503215751 73 228 19.1 40.0 0.00 0.00 0.02 83 1009.0
20260503215552 73 228 19.1 40.0 0.00 0.00 0.02 83 1009.0
20260503215352 73 228 19.1 40.0 0.00 0.00 0.02 83 1009.0
20260503214952 73 228 19.1 40.0 0.00 0.00 0.02 83 1009.0
20260503214752 73 228 19.1 40.0 0.00 0.00 0.02 83 1009.0
20260503214552 73 228 19.1 40.0 0.00 0.00 0.02 83 1009.0
20260503214352 73 228 19.1 40.8 0.00 0.00 0.02 81 1009.0
20260503214152 73 228 19.1 40.8 0.00 0.00 0.02 81 1009.0
20260503213952 73 228 19.1 40.8 0.00 0.00 0.02 81 1009.0
20260503213752 73 228 19.1 40.8 0.00 0.00 0.02 81 1009.0
20260503213553 73 228 19.1 40.8 0.00 0.00 0.02 81 1009.0
20260503213352 73 228 19.1 40.8 0.00 0.00 0.02 81 1009.0
20260503212952 73 228 19.1 40.8 0.00 0.00 0.02 79 1009.0
20260503212752 73 228 19.1 40.8 0.00 0.00 0.02 79 1009.0
20260503212552 73 228 19.1 40.8 0.00 0.00 0.02 79 1009.0
20260503212352 73 228 19.1 40.8 0.00 0.00 0.02 79 1009.0
20260503212152 73 228 19.1 40.8 0.00 0.00 0.02 79 1009.0
20260503211952 73 228 19.1 40.8 0.00 0.00 0.02 79 1009.0
20260503211752 73 228 19.1 40.8 0.00 0.00 0.02 79 1009.0
20260503211352 73 229 19.1 41.7 0.00 0.00 0.02 77 1009.0
20260503211151 73 229 19.1 41.7 0.00 0.00 0.02 77 1009.0
20260503210952 73 229 19.1 41.7 0.00 0.00 0.02 77 1009.0
20260503210752 73 229 19.1 41.7 0.00 0.00 0.02 77 1009.0